User: anonymous   Login
Location: SAPM � Hemmingford
(45.0500°N, 73.5833°W)
Time: 05:23:51
(UTC-04:00)
Language:

Iridium 75 - Orbit

View from above orbital plane
View from above orbital plane
View from above satellite
View from above satellite

Ground track
Ground track

The orbit data is extracted from the following two-line orbital elements,

1 25346U 98032E   15088.43422613  .00000637  00000-0  22030-3 0  9995
2 25346 086.4014 202.9634 0002169 099.7671 328.2245 14.34215119883464
Epoch (UTC): 29 March 2015 10:25:17
Eccentricity: 0.0002169
inclination: 86.4014°
perigee height: 776 km
apogee height: 779 km
right ascension of ascending node: 202.9634°
argument of perigee: 99.7671°
revolutions per day: 14.34215119
mean anomaly at epoch: 328.2245°
orbit number at epoch: 88346

The dashed part of the orbit path shows where the satellite is in the earth's shadow,  

DLR